Information on these data can be found in provided Readme document
Contact Info: Zachary Fasnacht (zachary.fasnacht@ssaihq.com); Nickolay Krotkov (nickolay.a.krotkov@nasa.gov); Lok Lamsal (lok.lamsal@nasa.gov)

FillValue: -999.
ScaleFactor: 1e15
Units: molecules/cm^2

Date(yyyy-mm-dd),City,Country,LonCenter,LatCenter,BoundingCoordinates,Median,Q1,Q3,Mean,Baseline_Median,Baseline_Q1,Baseline_Q3,Baseline_Mean,NumGoodSamples,NumTotalSamples
2015-01-01,Paris,France,2.3333,48.8001,[1.8333 48.3001 2.8333 49.3001],4.581,3.598,6.06,5.13,4.213,2.948,6.915,5.01,88.0,634.0
2015-01-02,Paris,France,2.3333,48.8001,[1.8333 48.3001 2.8333 49.3001],4.402,3.598,5.731,4.682,4.177,2.954,6.957,4.945,60.0,636.0
2015-01-03,Paris,France,2.3333,48.8001,[1.8333 48.3001 2.8333 49.3001],4.402,3.598,5.731,4.682,4.209,2.972,7.068,4.996,60.0,645.0
2015-01-04,Paris,France,2.3333,48.8001,[1.8333 48.3001 2.8333 49.3001],4.172,3.368,5.731,4.57,4.632,2.987,7.37,5.202,65.0,644.0
2015-01-05,Paris,France,2.3333,48.8001,[1.8333 48.3001 2.8333 49.3001],4.172,3.3,5.731,4.504,4.734,3.084,7.045,5.428,66.0,651.0
2015-01-06,Paris,France,2.3333,48.8001,[1.8333 48.3001 2.8333 49.3001],3.89,3.3,5.731,4.506,4.574,2.964,7.263,5.435,57.0,651.0
2015-01-07,Paris,France,2.3333,48.8001,[1.8333 48.3001 2.8333 49.3001],3.686,2.103,4.916,3.76,4.457,2.708,6.912,5.192,59.0,655.0
2015-01-08,Paris,France,2.3333,48.8001,[1.8333 48.3001 2.8333 49.3001],3.686,1.903,4.916,3.691,4.506,2.531,7.157,5.212,50.0,642.0
2015-01-09,Paris,France,2.3333,48.8001,[1.8333 48.3001 2.8333 49.3001],1.33,0.157,2.598,1.519,4.469,2.493,7.452,5.327,19.0,647.0
2015-01-10,Paris,France,2.3333,48.8001,[1.8333 48.3001 2.8333 49.3001],1.33,0.157,2.598,1.519,6.406,2.924,9.054,6.42,19.0,601.0
2015-01-11,Paris,France,2.3333,48.8001,[1.8333 48.3001 2.8333 49.3001],1.213,0.209,2.239,1.162,6.189,2.903,8.585,6.159,24.0,601.0
2015-01-12,Paris,France,2.3333,48.8001,[1.8333 48.3001 2.8333 49.3001],1.213,0.209,2.239,1.162,6.259,3.246,8.744,6.326,24.0,609.0
2015-01-13,Paris,France,2.3333,48.8001,[1.8333 48.3001 2.8333 49.3001],1.213,0.209,2.239,1.162,6.953,4.591,9.441,7.1,24.0,603.0
2015-01-14,Paris,France,2.3333,48.8001,[1.8333 48.3001 2.8333 49.3001],1.213,0.209,2.239,1.393,7.07,4.529,9.084,7.073,26.0,608.0
2015-01-15,Paris,France,2.3333,48.8001,[1.8333 48.3001 2.8333 49.3001],1.213,0.209,2.239,1.393,7.07,4.529,9.084,7.073,26.0,607.0
2015-01-16,Paris,France,2.3333,48.8001,[1.8333 48.3001 2.8333 49.3001],1.213,0.209,2.239,1.472,7.068,4.515,9.188,7.13,28.0,614.0
2015-01-17,Paris,France,2.3333,48.8001,[1.8333 48.3001 2.8333 49.3001],2.239,0.529,3.926,2.456,6.978,4.389,9.145,7.041,51.0,598.0
2015-01-18,Paris,France,2.3333,48.8001,[1.8333 48.3001 2.8333 49.3001],2.239,0.529,3.926,2.456,6.909,4.334,9.149,6.976,51.0,597.0
2015-01-19,Paris,France,2.3333,48.8001,[1.8333 48.3001 2.8333 49.3001],2.239,0.529,4.282,2.509,7.192,4.795,9.571,7.315,46.0,606.0
2015-01-20,Paris,France,2.3333,48.8001,[1.8333 48.3001 2.8333 49.3001],2.239,0.917,4.282,2.568,7.206,4.804,9.579,7.317,45.0,603.0
2015-01-21,Paris,France,2.3333,48.8001,[1.8333 48.3001 2.8333 49.3001],2.239,0.917,4.282,2.568,7.302,5.105,9.71,7.495,45.0,606.0
2015-01-22,Paris,France,2.3333,48.8001,[1.8333 48.3001 2.8333 49.3001],2.239,1.213,5.508,2.95,7.487,5.284,10.017,7.709,32.0,605.0
2015-01-23,Paris,France,2.3333,48.8001,[1.8333 48.3001 2.8333 49.3001],2.239,1.213,5.508,2.95,7.62,5.814,10.176,8.073,32.0,608.0
2015-01-24,Paris,France,2.3333,48.8001,[1.8333 48.3001 2.8333 49.3001],2.239,1.213,5.401,2.988,7.675,5.831,10.164,8.116,36.0,599.0
2015-01-25,Paris,France,2.3333,48.8001,[1.8333 48.3001 2.8333 49.3001],2.239,1.213,5.401,2.988,7.224,5.348,9.632,7.754,36.0,650.0
2015-01-26,Paris,France,2.3333,48.8001,[1.8333 48.3001 2.8333 49.3001],4.973,3.311,5.86,4.934,7.882,5.77,9.986,8.331,32.0,647.0
2015-01-27,Paris,France,2.3333,48.8001,[1.8333 48.3001 2.8333 49.3001],4.973,3.311,5.86,4.934,7.772,6.006,9.997,8.186,32.0,646.0
2015-01-28,Paris,France,2.3333,48.8001,[1.8333 48.3001 2.8333 49.3001],4.77,3.926,5.82,5.252,7.078,5.452,8.757,7.231,71.0,654.0
2015-01-29,Paris,France,2.3333,48.8001,[1.8333 48.3001 2.8333 49.3001],4.67,3.926,5.63,5.236,5.927,4.568,7.448,6.162,69.0,649.0
2015-01-30,Paris,France,2.3333,48.8001,[1.8333 48.3001 2.8333 49.3001],5.241,4.071,8.268,6.105,5.879,4.395,8.313,6.306,88.0,652.0
2015-01-31,Paris,France,2.3333,48.8001,[1.8333 48.3001 2.8333 49.3001],5.241,4.071,8.268,6.104,5.437,3.876,7.778,5.843,86.0,648.0
2015-02-01,Paris,France,2.3333,48.8001,[1.8333 48.3001 2.8333 49.3001],5.274,4.307,8.268,6.36,5.465,3.951,7.739,5.92,63.0,651.0
2015-02-02,Paris,France,2.3333,48.8001,[1.8333 48.3001 2.8333 49.3001],5.274,4.307,8.268,6.36,5.831,4.327,8.212,6.261,63.0,637.0
2015-02-03,Paris,France,2.3333,48.8001,[1.8333 48.3001 2.8333 49.3001],5.274,4.307,8.268,6.36,4.812,3.09,6.737,5.103,63.0,639.0
2015-02-04,Paris,France,2.3333,48.8001,[1.8333 48.3001 2.8333 49.3001],6.489,4.67,8.874,7.137,5.469,3.583,7.246,5.706,99.0,648.0
2015-02-05,Paris,France,2.3333,48.8001,[1.8333 48.3001 2.8333 49.3001],6.489,4.67,8.874,7.137,5.529,3.438,7.444,5.828,99.0,648.0
2015-02-06,Paris,France,2.3333,48.8001,[1.8333 48.3001 2.8333 49.3001],6.547,4.884,9.095,7.411,5.651,3.383,8.291,6.334,113.0,653.0
2015-02-07,Paris,France,2.3333,48.8001,[1.8333 48.3001 2.8333 49.3001],6.547,4.884,9.095,7.411,5.821,3.624,7.953,6.327,113.0,652.0
2015-02-08,Paris,France,2.3333,48.8001,[1.8333 48.3001 2.8333 49.3001],6.777,4.884,9.095,7.457,5.744,3.701,7.764,6.193,109.0,656.0
2015-02-09,Paris,France,2.3333,48.8001,[1.8333 48.3001 2.8333 49.3001],6.784,4.914,9.095,7.473,5.916,3.787,8.045,6.281,112.0,643.0
2015-02-10,Paris,France,2.3333,48.8001,[1.8333 48.3001 2.8333 49.3001],6.784,4.914,9.136,7.481,5.794,3.713,7.9,6.203,111.0,652.0
2015-02-11,Paris,France,2.3333,48.8001,[1.8333 48.3001 2.8333 49.3001],6.784,4.914,9.136,7.481,5.663,3.69,8.008,6.156,111.0,606.0
2015-02-12,Paris,France,2.3333,48.8001,[1.8333 48.3001 2.8333 49.3001],7.006,5.292,9.393,7.676,5.602,3.578,7.84,6.044,78.0,606.0
2015-02-13,Paris,France,2.3333,48.8001,[1.8333 48.3001 2.8333 49.3001],7.006,5.292,9.393,7.676,5.68,3.698,8.005,6.288,78.0,612.0
2015-02-14,Paris,France,2.3333,48.8001,[1.8333 48.3001 2.8333 49.3001],6.489,4.838,9.393,7.421,5.787,3.905,8.16,6.409,59.0,609.0
2015-02-15,Paris,France,2.3333,48.8001,[1.8333 48.3001 2.8333 49.3001],6.381,4.838,8.694,7.201,6.147,4.36,8.292,6.829,85.0,615.0
2015-02-16,Paris,France,2.3333,48.8001,[1.8333 48.3001 2.8333 49.3001],6.381,4.838,8.694,7.201,6.313,4.389,8.385,6.95,85.0,615.0
2015-02-17,Paris,France,2.3333,48.8001,[1.8333 48.3001 2.8333 49.3001],6.381,4.838,8.694,7.201,6.233,4.422,8.313,6.872,85.0,623.0
2015-02-18,Paris,France,2.3333,48.8001,[1.8333 48.3001 2.8333 49.3001],6.381,4.838,8.694,7.201,6.15,4.271,8.312,6.817,85.0,606.0
2015-02-19,Paris,France,2.3333,48.8001,[1.8333 48.3001 2.8333 49.3001],5.548,3.464,8.089,6.566,6.096,4.248,8.228,6.788,49.0,605.0
2015-02-20,Paris,France,2.3333,48.8001,[1.8333 48.3001 2.8333 49.3001],6.309,4.838,8.694,7.052,6.205,4.474,8.354,6.879,85.0,610.0
2015-02-21,Paris,France,2.3333,48.8001,[1.8333 48.3001 2.8333 49.3001],5.977,4.099,8.272,6.6,6.256,4.485,8.6,6.965,75.0,608.0
2015-02-22,Paris,France,2.3333,48.8001,[1.8333 48.3001 2.8333 49.3001],5.977,4.099,8.272,6.6,6.124,4.456,8.396,6.901,75.0,611.0
2015-02-23,Paris,France,2.3333,48.8001,[1.8333 48.3001 2.8333 49.3001],5.977,4.099,8.272,6.6,6.172,4.504,8.518,6.967,75.0,607.0
2015-02-24,Paris,France,2.3333,48.8001,[1.8333 48.3001 2.8333 49.3001],5.977,4.075,8.272,6.567,6.152,4.347,8.676,6.962,72.0,612.0
2015-02-25,Paris,France,2.3333,48.8001,[1.8333 48.3001 2.8333 49.3001],5.919,4.075,8.272,6.545,6.213,4.474,8.709,7.01,82.0,599.0
2015-02-26,Paris,France,2.3333,48.8001,[1.8333 48.3001 2.8333 49.3001],5.919,4.262,8.272,6.558,6.335,4.734,8.911,7.113,99.0,649.0
2015-02-27,Paris,France,2.3333,48.8001,[1.8333 48.3001 2.8333 49.3001],6.7,5.277,9.341,7.622,6.58,5.069,9.204,7.447,123.0,646.0
2015-02-28,Paris,France,2.3333,48.8001,[1.8333 48.3001 2.8333 49.3001],6.7,5.277,9.341,7.622,6.577,5.059,9.113,7.31,123.0,648.0
2015-03-01,Paris,France,2.3333,48.8001,[1.8333 48.3001 2.8333 49.3001],6.354,4.733,9.341,7.109,6.427,4.64,9.146,7.1,163.0,656.0
2015-03-02,Paris,France,2.3333,48.8001,[1.8333 48.3001 2.8333 49.3001],6.416,4.848,9.421,7.2,6.289,4.502,8.986,6.861,137.0,651.0
2015-03-03,Paris,France,2.3333,48.8001,[1.8333 48.3001 2.8333 49.3001],6.416,4.848,9.421,7.2,6.054,4.253,8.513,6.578,137.0,655.0
2015-03-04,Paris,France,2.3333,48.8001,[1.8333 48.3001 2.8333 49.3001],6.416,4.848,9.421,7.2,5.812,3.804,8.377,6.361,137.0,650.0
2015-03-05,Paris,France,2.3333,48.8001,[1.8333 48.3001 2.8333 49.3001],6.255,4.867,9.386,7.138,6.241,4.228,8.703,6.551,154.0,654.0
2015-03-06,Paris,France,2.3333,48.8001,[1.8333 48.3001 2.8333 49.3001],6.255,4.867,9.386,7.125,6.225,3.918,8.954,6.56,161.0,638.0
2015-03-07,Paris,France,2.3333,48.8001,[1.8333 48.3001 2.8333 49.3001],6.066,4.308,9.255,6.862,6.108,3.636,8.916,6.357,125.0,643.0
2015-03-08,Paris,France,2.3333,48.8001,[1.8333 48.3001 2.8333 49.3001],6.072,4.58,9.345,6.944,5.362,3.407,7.824,5.804,121.0,651.0
2015-03-09,Paris,France,2.3333,48.8001,[1.8333 48.3001 2.8333 49.3001],6.066,4.596,9.255,6.93,5.614,3.43,8.72,6.262,124.0,653.0
2015-03-10,Paris,France,2.3333,48.8001,[1.8333 48.3001 2.8333 49.3001],7.083,5.073,10.548,8.329,6.153,3.929,9.333,7.014,162.0,658.0
2015-03-11,Paris,France,2.3333,48.8001,[1.8333 48.3001 2.8333 49.3001],7.083,5.073,10.548,8.329,6.77,4.101,9.509,7.247,162.0,655.0
2015-03-12,Paris,France,2.3333,48.8001,[1.8333 48.3001 2.8333 49.3001],7.263,5.152,10.548,8.398,6.979,4.152,9.763,7.715,152.0,659.0
2015-03-13,Paris,France,2.3333,48.8001,[1.8333 48.3001 2.8333 49.3001],7.821,5.194,11.656,8.912,7.256,4.168,10.117,7.94,144.0,645.0
2015-03-14,Paris,France,2.3333,48.8001,[1.8333 48.3001 2.8333 49.3001],7.327,5.073,11.665,8.685,7.199,4.167,10.718,7.968,114.0,651.0
2015-03-15,Paris,France,2.3333,48.8001,[1.8333 48.3001 2.8333 49.3001],7.327,5.073,11.665,8.685,7.176,4.04,10.715,7.897,114.0,604.0
2015-03-16,Paris,France,2.3333,48.8001,[1.8333 48.3001 2.8333 49.3001],8.694,5.223,12.267,9.451,7.603,4.053,10.87,8.217,85.0,603.0
2015-03-17,Paris,France,2.3333,48.8001,[1.8333 48.3001 2.8333 49.3001],8.694,5.223,12.267,9.451,7.532,4.031,10.825,8.185,85.0,611.0
2015-03-18,Paris,France,2.3333,48.8001,[1.8333 48.3001 2.8333 49.3001],8.694,5.223,12.267,9.451,7.342,4.133,10.61,8.083,85.0,608.0
2015-03-19,Paris,France,2.3333,48.8001,[1.8333 48.3001 2.8333 49.3001],8.694,5.223,12.267,9.451,7.313,4.406,10.61,8.176,85.0,613.0
2015-03-20,Paris,France,2.3333,48.8001,[1.8333 48.3001 2.8333 49.3001],9.373,6.072,13.312,10.233,7.244,4.537,10.726,8.216,68.0,618.0
2015-03-21,Paris,France,2.3333,48.8001,[1.8333 48.3001 2.8333 49.3001],9.373,5.835,13.312,10.388,7.622,4.904,10.918,8.518,61.0,624.0
2015-03-22,Paris,France,2.3333,48.8001,[1.8333 48.3001 2.8333 49.3001],9.373,5.835,13.312,10.388,7.112,4.373,10.523,8.095,61.0,603.0
2015-03-23,Paris,France,2.3333,48.8001,[1.8333 48.3001 2.8333 49.3001],8.905,4.851,12.53,9.486,7.258,4.417,10.274,8.042,69.0,606.0
2015-03-24,Paris,France,2.3333,48.8001,[1.8333 48.3001 2.8333 49.3001],6.635,4.618,10.493,8.664,6.535,4.393,9.626,7.702,81.0,612.0
2015-03-25,Paris,France,2.3333,48.8001,[1.8333 48.3001 2.8333 49.3001],5.085,3.801,8.543,6.142,6.309,4.275,9.301,7.226,43.0,611.0
2015-03-26,Paris,France,2.3333,48.8001,[1.8333 48.3001 2.8333 49.3001],5.085,3.801,8.543,6.142,5.871,4.01,8.959,6.914,43.0,616.0
2015-03-27,Paris,France,2.3333,48.8001,[1.8333 48.3001 2.8333 49.3001],5.085,3.801,8.543,6.142,5.512,3.944,8.541,6.63,43.0,615.0
2015-03-28,Paris,France,2.3333,48.8001,[1.8333 48.3001 2.8333 49.3001],5.067,3.576,6.635,5.512,5.337,3.783,8.106,6.475,34.0,621.0
2015-03-29,Paris,France,2.3333,48.8001,[1.8333 48.3001 2.8333 49.3001],5.067,3.571,6.635,5.393,5.035,3.659,7.382,6.049,49.0,607.0
2015-03-30,Paris,France,2.3333,48.8001,[1.8333 48.3001 2.8333 49.3001],4.851,3.355,6.244,5.031,5.152,3.552,7.182,5.901,65.0,653.0
2015-03-31,Paris,France,2.3333,48.8001,[1.8333 48.3001 2.8333 49.3001],5.07,3.571,6.435,5.692,5.169,3.654,7.413,6.031,91.0,650.0
2015-04-01,Paris,France,2.3333,48.8001,[1.8333 48.3001 2.8333 49.3001],5.445,3.801,8.062,6.387,5.27,3.709,7.743,6.181,102.0,650.0
2015-04-02,Paris,France,2.3333,48.8001,[1.8333 48.3001 2.8333 49.3001],5.746,3.886,8.514,7.016,5.496,3.582,7.616,6.346,143.0,657.0
2015-04-03,Paris,France,2.3333,48.8001,[1.8333 48.3001 2.8333 49.3001],5.746,3.886,8.514,7.016,5.53,3.588,7.785,6.384,143.0,651.0
2015-04-04,Paris,France,2.3333,48.8001,[1.8333 48.3001 2.8333 49.3001],5.746,3.886,8.514,7.016,5.303,3.703,7.365,6.163,143.0,648.0
2015-04-05,Paris,France,2.3333,48.8001,[1.8333 48.3001 2.8333 49.3001],5.746,3.886,8.514,7.016,4.967,3.422,7.106,5.78,143.0,647.0
2015-04-06,Paris,France,2.3333,48.8001,[1.8333 48.3001 2.8333 49.3001],5.746,3.888,8.891,7.016,5.211,3.665,7.458,6.015,158.0,658.0
2015-04-07,Paris,France,2.3333,48.8001,[1.8333 48.3001 2.8333 49.3001],6.008,4.04,9.543,7.281,5.212,3.631,7.769,6.162,177.0,658.0
2015-04-08,Paris,France,2.3333,48.8001,[1.8333 48.3001 2.8333 49.3001],5.746,3.455,9.543,6.893,5.149,3.428,7.753,6.025,182.0,698.0
2015-04-09,Paris,France,2.3333,48.8001,[1.8333 48.3001 2.8333 49.3001],5.846,3.589,10.019,7.183,5.152,3.432,7.892,6.087,193.0,729.0
2015-04-10,Paris,France,2.3333,48.8001,[1.8333 48.3001 2.8333 49.3001],5.846,3.589,10.019,7.183,4.98,3.413,7.74,5.923,193.0,727.0
2015-04-11,Paris,France,2.3333,48.8001,[1.8333 48.3001 2.8333 49.3001],5.496,3.455,8.824,6.775,4.875,3.306,7.381,5.681,230.0,731.0
2015-04-12,Paris,France,2.3333,48.8001,[1.8333 48.3001 2.8333 49.3001],5.496,3.455,8.824,6.775,4.924,3.233,7.439,5.763,230.0,730.0
2015-04-13,Paris,France,2.3333,48.8001,[1.8333 48.3001 2.8333 49.3001],5.373,3.447,8.64,6.681,5.032,3.311,7.577,5.842,242.0,737.0
2015-04-14,Paris,France,2.3333,48.8001,[1.8333 48.3001 2.8333 49.3001],5.659,3.455,9.543,7.013,5.226,3.358,7.837,6.066,239.0,727.0
2015-04-15,Paris,France,2.3333,48.8001,[1.8333 48.3001 2.8333 49.3001],5.373,3.426,8.585,6.691,5.078,3.233,7.543,5.849,218.0,731.0
2015-04-16,Paris,France,2.3333,48.8001,[1.8333 48.3001 2.8333 49.3001],5.18,3.257,8.263,6.384,4.898,3.123,7.358,5.649,207.0,684.0
2015-04-17,Paris,France,2.3333,48.8001,[1.8333 48.3001 2.8333 49.3001],4.647,3.076,6.988,5.736,4.729,3.041,6.93,5.397,166.0,742.0
2015-04-18,Paris,France,2.3333,48.8001,[1.8333 48.3001 2.8333 49.3001],4.647,3.076,6.988,5.736,4.732,3.021,6.931,5.39,166.0,750.0
2015-04-19,Paris,France,2.3333,48.8001,[1.8333 48.3001 2.8333 49.3001],4.647,3.076,6.988,5.736,4.696,3.019,7.011,5.434,166.0,779.0
2015-04-20,Paris,France,2.3333,48.8001,[1.8333 48.3001 2.8333 49.3001],5.054,3.257,8.091,5.993,4.882,3.115,7.279,5.597,182.0,814.0
2015-04-21,Paris,France,2.3333,48.8001,[1.8333 48.3001 2.8333 49.3001],4.939,3.098,7.971,5.855,4.753,3.029,6.978,5.426,167.0,831.0
2015-04-22,Paris,France,2.3333,48.8001,[1.8333 48.3001 2.8333 49.3001],4.949,3.214,7.971,5.672,4.705,3.041,6.891,5.324,140.0,816.0
2015-04-23,Paris,France,2.3333,48.8001,[1.8333 48.3001 2.8333 49.3001],5.373,3.523,8.091,6.338,4.766,3.07,6.843,5.433,120.0,761.0
2015-04-24,Paris,France,2.3333,48.8001,[1.8333 48.3001 2.8333 49.3001],5.337,3.479,7.981,5.792,4.798,3.07,6.96,5.354,109.0,739.0
2015-04-25,Paris,France,2.3333,48.8001,[1.8333 48.3001 2.8333 49.3001],5.337,3.479,7.981,5.792,4.877,3.108,6.978,5.414,109.0,744.0
2015-04-26,Paris,France,2.3333,48.8001,[1.8333 48.3001 2.8333 49.3001],6.226,3.685,8.16,6.385,5.005,3.16,7.17,5.588,72.0,742.0
2015-04-27,Paris,France,2.3333,48.8001,[1.8333 48.3001 2.8333 49.3001],6.093,3.763,8.16,6.39,4.958,3.089,6.957,5.375,76.0,744.0
2015-04-28,Paris,France,2.3333,48.8001,[1.8333 48.3001 2.8333 49.3001],6.917,4.562,8.607,6.965,4.697,2.947,6.683,5.199,49.0,742.0
2015-04-29,Paris,France,2.3333,48.8001,[1.8333 48.3001 2.8333 49.3001],5.903,3.523,7.981,5.601,4.28,2.669,6.158,4.653,57.0,747.0
2015-04-30,Paris,France,2.3333,48.8001,[1.8333 48.3001 2.8333 49.3001],5.718,2.88,8.16,5.572,3.934,2.521,5.787,4.443,48.0,738.0
2015-05-01,Paris,France,2.3333,48.8001,[1.8333 48.3001 2.8333 49.3001],5.718,2.88,8.16,5.572,3.952,2.484,5.929,4.482,48.0,788.0
2015-05-02,Paris,France,2.3333,48.8001,[1.8333 48.3001 2.8333 49.3001],4.667,2.554,7.981,4.902,3.967,2.613,5.988,4.504,73.0,726.0
2015-05-03,Paris,France,2.3333,48.8001,[1.8333 48.3001 2.8333 49.3001],2.636,-0.138,6.098,3.368,3.653,2.105,5.758,4.241,83.0,727.0
2015-05-04,Paris,France,2.3333,48.8001,[1.8333 48.3001 2.8333 49.3001],2.541,0.12,5.29,3.088,3.586,1.994,5.616,4.074,109.0,703.0
2015-05-05,Paris,France,2.3333,48.8001,[1.8333 48.3001 2.8333 49.3001],1.508,-0.138,3.31,1.892,3.228,1.871,5.249,3.837,93.0,667.0
2015-05-06,Paris,France,2.3333,48.8001,[1.8333 48.3001 2.8333 49.3001],2.282,0.044,4.304,2.4,3.341,1.879,5.233,3.787,112.0,649.0
2015-05-07,Paris,France,2.3333,48.8001,[1.8333 48.3001 2.8333 49.3001],2.282,0.044,4.304,2.4,3.258,1.828,5.043,3.801,112.0,649.0
2015-05-08,Paris,France,2.3333,48.8001,[1.8333 48.3001 2.8333 49.3001],2.282,0.044,4.304,2.4,3.345,1.915,4.924,3.804,112.0,652.0
2015-05-09,Paris,France,2.3333,48.8001,[1.8333 48.3001 2.8333 49.3001],2.282,0.044,4.304,2.4,3.257,1.968,4.808,3.698,112.0,657.0
2015-05-10,Paris,France,2.3333,48.8001,[1.8333 48.3001 2.8333 49.3001],2.085,0.41,3.675,2.282,3.205,1.867,4.857,3.599,132.0,703.0
2015-05-11,Paris,France,2.3333,48.8001,[1.8333 48.3001 2.8333 49.3001],2.085,0.535,3.739,2.409,3.024,1.772,4.403,3.401,156.0,732.0
2015-05-12,Paris,France,2.3333,48.8001,[1.8333 48.3001 2.8333 49.3001],2.085,0.527,3.593,2.33,3.194,1.838,4.712,3.485,152.0,731.0
2015-05-13,Paris,France,2.3333,48.8001,[1.8333 48.3001 2.8333 49.3001],2.494,0.83,4.392,2.734,3.139,1.752,4.633,3.385,172.0,735.0
2015-05-14,Paris,France,2.3333,48.8001,[1.8333 48.3001 2.8333 49.3001],2.436,0.868,4.327,2.722,3.163,1.839,4.647,3.407,151.0,733.0
2015-05-15,Paris,France,2.3333,48.8001,[1.8333 48.3001 2.8333 49.3001],2.787,1.04,4.97,3.423,3.266,1.851,4.936,3.634,172.0,737.0
2015-05-16,Paris,France,2.3333,48.8001,[1.8333 48.3001 2.8333 49.3001],2.787,1.148,4.97,3.437,3.258,1.873,4.964,3.643,182.0,726.0
2015-05-17,Paris,France,2.3333,48.8001,[1.8333 48.3001 2.8333 49.3001],2.719,1.109,5.233,3.439,3.288,1.917,4.971,3.835,164.0,731.0
2015-05-18,Paris,France,2.3333,48.8001,[1.8333 48.3001 2.8333 49.3001],3.264,1.806,5.703,4.041,3.585,2.257,5.021,4.024,154.0,684.0
2015-05-19,Paris,France,2.3333,48.8001,[1.8333 48.3001 2.8333 49.3001],4.034,2.085,5.815,4.419,3.774,2.353,5.054,4.136,128.0,706.0
2015-05-20,Paris,France,2.3333,48.8001,[1.8333 48.3001 2.8333 49.3001],4.034,2.267,6.25,4.599,3.834,2.369,5.303,4.21,169.0,714.0
2015-05-21,Paris,France,2.3333,48.8001,[1.8333 48.3001 2.8333 49.3001],3.739,2.226,6.25,4.632,3.695,2.359,5.512,4.286,150.0,743.0
2015-05-22,Paris,France,2.3333,48.8001,[1.8333 48.3001 2.8333 49.3001],3.318,1.871,5.815,4.324,3.532,2.241,5.22,4.136,161.0,778.0
2015-05-23,Paris,France,2.3333,48.8001,[1.8333 48.3001 2.8333 49.3001],3.318,1.871,5.815,4.324,3.526,2.145,5.233,4.126,161.0,800.0
2015-05-24,Paris,France,2.3333,48.8001,[1.8333 48.3001 2.8333 49.3001],3.318,1.871,5.815,4.324,3.68,2.219,5.258,4.167,161.0,784.0
2015-05-25,Paris,France,2.3333,48.8001,[1.8333 48.3001 2.8333 49.3001],4.073,2.329,6.795,4.738,3.851,2.377,5.472,4.268,164.0,726.0
2015-05-26,Paris,France,2.3333,48.8001,[1.8333 48.3001 2.8333 49.3001],4.034,2.173,6.261,4.544,3.642,2.145,5.195,4.076,159.0,706.0
2015-05-27,Paris,France,2.3333,48.8001,[1.8333 48.3001 2.8333 49.3001],3.319,1.962,6.049,4.29,3.267,1.988,5.084,3.893,177.0,711.0
2015-05-28,Paris,France,2.3333,48.8001,[1.8333 48.3001 2.8333 49.3001],3.018,1.725,5.703,4.036,3.121,1.942,4.951,3.832,161.0,716.0
2015-05-29,Paris,France,2.3333,48.8001,[1.8333 48.3001 2.8333 49.3001],3.108,1.962,5.612,4.06,3.13,1.949,4.967,3.823,195.0,720.0
2015-05-30,Paris,France,2.3333,48.8001,[1.8333 48.3001 2.8333 49.3001],2.754,1.56,4.814,3.456,2.977,1.862,4.671,3.584,167.0,742.0
2015-05-31,Paris,France,2.3333,48.8001,[1.8333 48.3001 2.8333 49.3001],2.753,1.52,4.188,3.254,2.953,1.79,4.45,3.488,184.0,744.0
2015-06-01,Paris,France,2.3333,48.8001,[1.8333 48.3001 2.8333 49.3001],2.754,1.52,4.379,3.27,2.825,1.748,4.516,3.234,197.0,747.0
2015-06-02,Paris,France,2.3333,48.8001,[1.8333 48.3001 2.8333 49.3001],3.043,1.962,4.705,3.459,2.777,1.781,4.466,3.209,234.0,795.0
2015-06-03,Paris,France,2.3333,48.8001,[1.8333 48.3001 2.8333 49.3001],3.018,1.76,4.538,3.391,2.652,1.577,4.326,3.054,257.0,771.0
2015-06-04,Paris,France,2.3333,48.8001,[1.8333 48.3001 2.8333 49.3001],2.89,1.76,4.014,3.035,2.541,1.545,4.152,2.923,232.0,770.0
2015-06-05,Paris,France,2.3333,48.8001,[1.8333 48.3001 2.8333 49.3001],2.991,1.958,4.014,3.086,2.598,1.641,4.104,2.909,242.0,744.0
2015-06-06,Paris,France,2.3333,48.8001,[1.8333 48.3001 2.8333 49.3001],3.054,2.022,4.037,3.207,2.636,1.659,4.052,2.948,231.0,722.0
2015-06-07,Paris,France,2.3333,48.8001,[1.8333 48.3001 2.8333 49.3001],3.093,2.001,4.037,3.212,2.664,1.668,4.038,3.011,246.0,705.0
2015-06-08,Paris,France,2.3333,48.8001,[1.8333 48.3001 2.8333 49.3001],3.093,2.001,4.037,3.212,2.621,1.665,3.998,3.001,246.0,722.0
2015-06-09,Paris,France,2.3333,48.8001,[1.8333 48.3001 2.8333 49.3001],3.285,2.21,4.48,3.403,2.602,1.654,3.926,2.907,254.0,728.0
2015-06-10,Paris,France,2.3333,48.8001,[1.8333 48.3001 2.8333 49.3001],3.38,2.365,4.501,3.7,2.666,1.745,4.033,3.051,260.0,731.0
2015-06-11,Paris,France,2.3333,48.8001,[1.8333 48.3001 2.8333 49.3001],3.496,2.453,4.556,3.813,2.856,1.697,4.059,3.1,242.0,774.0
2015-06-12,Paris,France,2.3333,48.8001,[1.8333 48.3001 2.8333 49.3001],3.38,2.3,4.545,3.725,2.774,1.696,4.173,3.109,271.0,798.0
2015-06-13,Paris,France,2.3333,48.8001,[1.8333 48.3001 2.8333 49.3001],3.338,2.36,4.485,3.656,2.698,1.677,4.116,3.097,237.0,803.0
2015-06-14,Paris,France,2.3333,48.8001,[1.8333 48.3001 2.8333 49.3001],3.308,2.27,4.483,3.554,2.729,1.7,4.265,3.188,246.0,786.0
2015-06-15,Paris,France,2.3333,48.8001,[1.8333 48.3001 2.8333 49.3001],3.496,2.271,4.545,3.719,2.774,1.719,4.192,3.169,219.0,810.0
2015-06-16,Paris,France,2.3333,48.8001,[1.8333 48.3001 2.8333 49.3001],3.496,2.3,4.545,3.76,2.675,1.695,4.059,3.11,199.0,801.0
2015-06-17,Paris,France,2.3333,48.8001,[1.8333 48.3001 2.8333 49.3001],3.38,2.12,4.501,3.827,2.539,1.563,3.865,2.997,188.0,809.0
2015-06-18,Paris,France,2.3333,48.8001,[1.8333 48.3001 2.8333 49.3001],3.399,2.154,4.579,4.062,2.606,1.635,3.903,3.138,207.0,814.0
2015-06-19,Paris,France,2.3333,48.8001,[1.8333 48.3001 2.8333 49.3001],3.38,2.079,5.443,4.21,2.567,1.621,4.03,3.133,191.0,768.0
2015-06-20,Paris,France,2.3333,48.8001,[1.8333 48.3001 2.8333 49.3001],2.945,1.924,4.579,3.85,2.514,1.599,3.819,3.042,197.0,788.0
2015-06-21,Paris,France,2.3333,48.8001,[1.8333 48.3001 2.8333 49.3001],2.664,1.717,4.329,3.479,2.458,1.564,3.801,2.968,237.0,783.0
2015-06-22,Paris,France,2.3333,48.8001,[1.8333 48.3001 2.8333 49.3001],2.629,1.676,4.329,3.498,2.417,1.542,3.756,2.916,222.0,812.0
2015-06-23,Paris,France,2.3333,48.8001,[1.8333 48.3001 2.8333 49.3001],2.737,1.676,4.483,3.501,2.514,1.529,3.79,2.896,253.0,829.0
2015-06-24,Paris,France,2.3333,48.8001,[1.8333 48.3001 2.8333 49.3001],2.398,1.496,3.761,3.277,2.484,1.47,3.662,2.857,225.0,846.0
2015-06-25,Paris,France,2.3333,48.8001,[1.8333 48.3001 2.8333 49.3001],2.415,1.668,3.647,3.102,2.498,1.51,3.68,2.834,235.0,832.0
2015-06-26,Paris,France,2.3333,48.8001,[1.8333 48.3001 2.8333 49.3001],2.476,1.668,3.761,3.137,2.477,1.504,3.646,2.816,261.0,782.0
2015-06-27,Paris,France,2.3333,48.8001,[1.8333 48.3001 2.8333 49.3001],2.42,1.487,3.783,3.109,2.444,1.438,3.575,2.761,239.0,763.0
2015-06-28,Paris,France,2.3333,48.8001,[1.8333 48.3001 2.8333 49.3001],2.413,1.481,3.783,3.098,2.45,1.423,3.603,2.747,242.0,766.0
2015-06-29,Paris,France,2.3333,48.8001,[1.8333 48.3001 2.8333 49.3001],2.552,1.509,3.783,3.167,2.448,1.472,3.564,2.751,238.0,769.0
2015-06-30,Paris,France,2.3333,48.8001,[1.8333 48.3001 2.8333 49.3001],2.552,1.509,3.783,3.167,2.414,1.434,3.562,2.755,238.0,748.0